Hourly Weather Golczowice

Today, 17 May, Monday

Time Temperature Precipitation Wind Pressure Humidity
00:00 +8°C° 0 mm 2 mps 724 mmHg 88%
01:00 +8°C° 0 mm 2 mps 724 mmHg 89%
02:00 +8°C° 0 mm 2 mps 724 mmHg 88%
03:00 +8°C° 0 mm 2 mps 724 mmHg 87%
04:00 +8°C° 0 mm 2 mps 724 mmHg 87%
05:00 +9°C° 0 mm 2 mps 724 mmHg 83%
06:00 +12°C° 0 mm 2 mps 724 mmHg 79%
07:00 +12°C° 0 mm 3 mps 724 mmHg 75%
08:00 +13°C° 0.2 mm 3 mps 724 mmHg 76%
09:00 +13°C° 0.2 mm 3 mps 724 mmHg 76%
10:00 +13°C° 0.2 mm 3 mps 724 mmHg 77%
11:00 +13°C° 0.6 mm 3 mps 724 mmHg 80%
12:00 +13°C° 0.6 mm 2 mps 724 mmHg 84%
13:00 +13°C° 0.6 mm 2 mps 724 mmHg 87%
14:00 +12°C° 0.8 mm 2 mps 723 mmHg 89%
15:00 +12°C° 0.8 mm 2 mps 723 mmHg 91%
16:00 +10°C° 0.8 mm 2 mps 723 mmHg 93%
17:00 +10°C° 1.6 mm 2 mps 723 mmHg 95%
18:00 +10°C° 1.6 mm 2 mps 723 mmHg 96%
19:00 +9°C° 1.6 mm 2 mps 723 mmHg 97%
20:00 +9°C° 1.9 mm 2 mps 724 mmHg 97%
21:00 +9°C° 1.9 mm 2 mps 724 mmHg 98%
22:00 +9°C° 1.9 mm 2 mps 724 mmHg 98%
23:00 +8°C° 0.9 mm 4 mps 724 mmHg 97%

Tomorrow, 18 May, Tuesday

Time Temperature Precipitation Wind Pressure Humidity
00:00 +8°C° 0.9 mm 4 mps 724 mmHg 96%
01:00 +8°C° 0.9 mm 4 mps 724 mmHg 96%
02:00 +8°C° 0.1 mm 5 mps 724 mmHg 95%
03:00 +8°C° 0.1 mm 5 mps 725 mmHg 95%
04:00 +8°C° 0.1 mm 5 mps 725 mmHg 94%
05:00 +8°C° 0 mm 6 mps 725 mmHg 93%
06:00 +8°C° 0 mm 6 mps 726 mmHg 92%
07:00 +8°C° 0 mm 6 mps 726 mmHg 91%
08:00 +8°C° 0 mm 6 mps 726 mmHg 87%
09:00 +9°C° 0 mm 6 mps 727 mmHg 83%
10:00 +10°C° 0 mm 6 mps 727 mmHg 80%
11:00 +10°C° 0 mm 6 mps 727 mmHg 75%
12:00 +11°C° 0 mm 6 mps 727 mmHg 71%
13:00 +13°C° 0 mm 6 mps 727 mmHg 66%
14:00 +13°C° 0 mm 6 mps 727 mmHg 66%
15:00 +14°C° 0 mm 5 mps 727 mmHg 65%
16:00 +14°C° 0 mm 4 mps 727 mmHg 64%
17:00 +13°C° 0.1 mm 4 mps 727 mmHg 71%
18:00 +12°C° 0.1 mm 3 mps 727 mmHg 78%
19:00 +10°C° 0.1 mm 3 mps 728 mmHg 85%
20:00 +10°C° 0 mm 3 mps 728 mmHg 88%
21:00 +9°C° 0 mm 3 mps 728 mmHg 90%
22:00 +8°C° 0 mm 3 mps 728 mmHg 93%
23:00 +8°C° 0 mm 3 mps 728 mmHg 94%

Day after tomorrow, 19 May, Wednesday

Time Temperature Precipitation Wind Pressure Humidity
00:00 +7°C° 0 mm 3 mps 729 mmHg 95%
01:00 +7°C° 0 mm 3 mps 729 mmHg 95%
02:00 +7°C° 0 mm 3 mps 729 mmHg 96%
03:00 +7°C° 0 mm 3 mps 729 mmHg 96%
04:00 +5°C° 0 mm 3 mps 729 mmHg 97%
05:00 +8°C° 0 mm 3 mps 729 mmHg 93%
06:00 +8°C° 0 mm 4 mps 729 mmHg 89%
07:00 +10°C° 0 mm 4 mps 730 mmHg 85%
08:00 +11°C° 0.1 mm 4 mps 730 mmHg 81%
09:00 +12°C° 0.1 mm 4 mps 730 mmHg 77%
10:00 +12°C° 0.1 mm 4 mps 730 mmHg 72%
11:00 +13°C° 0.2 mm 4 mps 730 mmHg 71%
12:00 +13°C° 0.2 mm 4 mps 729 mmHg 70%
13:00 +13°C° 0.2 mm 4 mps 729 mmHg 69%
14:00 +12°C° 0.4 mm 4 mps 729 mmHg 73%
15:00 +12°C° 0.4 mm 4 mps 729 mmHg 77%
16:00 +11°C° 0.4 mm 4 mps 729 mmHg 81%
17:00 +11°C° 0.5 mm 3 mps 729 mmHg 84%
18:00 +10°C° 0.5 mm 3 mps 729 mmHg 87%
19:00 +9°C° 0.5 mm 2 mps 729 mmHg 90%
20:00 +9°C° 0.3 mm 2 mps 729 mmHg 91%
21:00 +9°C° 0.3 mm 2 mps 729 mmHg 92%
22:00 +8°C° 0.3 mm 2 mps 729 mmHg 93%
23:00 +8°C° 0 mm 2 mps 730 mmHg 93%

20 May, Thursday

Time Temperature Precipitation Wind Pressure Humidity
00:00 +8°C° 0 mm 3 mps 730 mmHg 94%
01:00 +7°C° 0 mm 3 mps 730 mmHg 95%
02:00 +7°C° 0 mm 3 mps 730 mmHg 95%
03:00 +5°C° 0 mm 3 mps 730 mmHg 96%
04:00 +5°C° 0 mm 3 mps 730 mmHg 96%
05:00 +5°C° 0 mm 3 mps 730 mmHg 96%
06:00 +7°C° 0 mm 3 mps 730 mmHg 95%
07:00 +6°C° 0 mm 4 mps 730 mmHg 95%
08:00 +7°C° 0.1 mm 4 mps 731 mmHg 94%
09:00 +7°C° 0.1 mm 4 mps 731 mmHg 94%
10:00 +7°C° 0.1 mm 4 mps 731 mmHg 93%
11:00 +9°C° 0.2 mm 3 mps 731 mmHg 87%
12:00 +10°C° 0.2 mm 3 mps 731 mmHg 82%
13:00 +11°C° 0.2 mm 3 mps 732 mmHg 76%
14:00 +11°C° 0.3 mm 3 mps 732 mmHg 78%
15:00 +11°C° 0.3 mm 3 mps 731 mmHg 79%
16:00 +11°C° 0.3 mm 4 mps 731 mmHg 80%
17:00 +10°C° 0.2 mm 3 mps 731 mmHg 83%
18:00 +9°C° 0.2 mm 3 mps 732 mmHg 85%
19:00 +9°C° 0.2 mm 2 mps 732 mmHg 88%
20:00 +8°C° 0.1 mm 2 mps 732 mmHg 90%
21:00 +7°C° 0.1 mm 3 mps 732 mmHg 93%
22:00 +5°C° 0.1 mm 3 mps 733 mmHg 95%
23:00 +5°C° 0 mm 3 mps 733 mmHg 96%

21 May, Friday

Time Temperature Precipitation Wind Pressure Humidity
00:00 +5°C° 0 mm 3 mps 733 mmHg 96%
01:00 +5°C° 0 mm 3 mps 733 mmHg 97%
02:00 +5°C° 0 mm 3 mps 733 mmHg 97%
03:00 +5°C° 0 mm 3 mps 733 mmHg 97%
04:00 +4°C° 0 mm 3 mps 733 mmHg 97%
05:00 +5°C° 0 mm 3 mps 734 mmHg 93%
06:00 +7°C° 0 mm 3 mps 734 mmHg 89%
07:00 +6°C° 0 mm 4 mps 734 mmHg 86%
08:00 +8°C° 0 mm 4 mps 734 mmHg 75%
09:00 +10°C° 0 mm 4 mps 734 mmHg 64%
10:00 +11°C° 0 mm 4 mps 734 mmHg 54%
11:00 +12°C° 0 mm 3 mps 733 mmHg 51%
12:00 +13°C° 0 mm 3 mps 733 mmHg 47%
13:00 +14°C° 0 mm 3 mps 733 mmHg 44%
14:00 +14°C° 0 mm 3 mps 733 mmHg 46%
15:00 +14°C° 0 mm 3 mps 732 mmHg 48%
16:00 +13°C° 0 mm 3 mps 732 mmHg 50%
17:00 +13°C° 0 mm 2 mps 732 mmHg 55%
18:00 +12°C° 0 mm 1 mps 732 mmHg 60%
19:00 +10°C° 0 mm 0 mps 732 mmHg 65%
20:00 +10°C° 0 mm 1 mps 732 mmHg 66%
21:00 +9°C° 0 mm 1 mps 732 mmHg 68%
22:00 +7°C° 0 mm 2 mps 732 mmHg 70%
23:00 +7°C° 0 mm 2 mps 732 mmHg 70%

22 May, Saturday

Time Temperature Precipitation Wind Pressure Humidity
00:00 +7°C° 0 mm 2 mps 732 mmHg 71%
01:00 +7°C° 0 mm 2 mps 731 mmHg 72%
02:00 +7°C° 0 mm 2 mps 731 mmHg 72%
03:00 +7°C° 0 mm 2 mps 731 mmHg 72%
04:00 +7°C° 0 mm 2 mps 731 mmHg 71%
05:00 +8°C° 0 mm 2 mps 731 mmHg 70%
06:00 +9°C° 0 mm 3 mps 732 mmHg 68%
07:00 +10°C° 0 mm 3 mps 732 mmHg 66%
08:00 +12°C° 0 mm 3 mps 732 mmHg 61%
09:00 +14°C° 0 mm 3 mps 732 mmHg 56%
10:00 +17°C° 0 mm 3 mps 732 mmHg 50%
11:00 +18°C° 0 mm 3 mps 732 mmHg 49%
12:00 +19°C° 0 mm 3 mps 732 mmHg 48%
13:00 +20°C° 0 mm 3 mps 732 mmHg 47%
14:00 +20°C° 0 mm 4 mps 732 mmHg 50%
15:00 +20°C° 0 mm 4 mps 732 mmHg 53%
16:00 +20°C° 0 mm 4 mps 732 mmHg 55%
17:00 +18°C° 0.1 mm 4 mps 732 mmHg 62%
18:00 +17°C° 0.1 mm 3 mps 732 mmHg 69%
19:00 +15°C° 0.1 mm 2 mps 732 mmHg 76%
20:00 +14°C° 0 mm 2 mps 733 mmHg 78%
21:00 +13°C° 0 mm 2 mps 733 mmHg 81%
22:00 +12°C° 0 mm 2 mps 734 mmHg 83%
23:00 +12°C° 0 mm 1 mps 734 mmHg 84%
Show more